User: anonymous   Login
Location: Observatorio Las Palmas
(29.0667°N, 110.9333°W)
Time: 11:19:07
(UTC-07:00)
Language:

NOAA 19 - Orbit

View from above orbital plane
View from above orbital plane
View from above satellite
View from above satellite

Ground track
Ground track

The orbit data is extracted from the following two-line orbital elements,

1 33591U 09005A   16339.28244870  .00000192  00000-0  12939-3 0  9991
2 33591  99.0636 297.6408 0014931 101.1161 259.1810 14.12133428403148
Epoch (UTC): 04 December 2016 06:46:43
Eccentricity: 0.0014931
inclination: 99.0636°
perigee height: 841 km
apogee height: 863 km
right ascension of ascending node: 297.6408°
argument of perigee: 101.1161°
revolutions per day: 14.12133428
mean anomaly at epoch: 259.1810°
orbit number at epoch: 40314

The dashed part of the orbit path shows where the satellite is in the earth's shadow,  

DLR